Location: Academy at Carrie F Thomas
(32.8490°N, 97.2053°W)
Time: 21:40:55
(UTC+00:00)

Cosmos 2228 Rocket - Visible Passes

Search period start: 03 July 2022 00:00
Search period end: 13 July 2022 00:00
Orbit: 616 x 653 km, 82.5° (Epoch: 02 July)

Date Brightness Start Highest point End Pass type
(mag) Time Alt. Az. Time Alt. Az. Time Alt. Az.
03 Jul 3.2 10:31:33 10° NNW 10:35:55 55° W 10:40:18 10° S visible
04 Jul 5.4 09:16:29 10° NNE 09:19:56 22° ENE 09:23:24 10° SE visible
04 Jul 4.3 10:54:24 10° NW 10:58:00 24° W 11:01:37 10° SW visible
05 Jul 4.0 09:37:58 10° N 09:42:18 48° E 09:46:39 10° SSE visible
06 Jul 3.0 10:00:05 10° N 10:04:32 72° W 10:08:50 11° S visible
07 Jul 5.6 08:45:27 10° NNE 08:48:28 18° ENE 08:51:30 10° ESE visible
07 Jul 4.0 10:22:44 10° NNW 10:26:39 30° W 10:29:59 13° SSW visible
08 Jul 4.4 09:06:41 10° NNE 09:10:52 38° E 09:13:50 17° SE visible
08 Jul 4.9 10:46:22 10° NW 10:48:39 14° W 10:50:56 10° WSW visible
09 Jul 3.0 09:28:38 10° N 09:33:09 89° ESE 09:35:10 33° S visible
10 Jul 5.8 08:14:35 10° NE 08:17:00 14° ENE 08:19:08 11° ESE visible
10 Jul 3.7 09:51:07 10° NNW 09:55:17 38° W 09:56:34 31° SW visible
11 Jul 4.7 08:35:27 10° NNE 08:39:26 30° E 08:40:36 27° ESE visible
11 Jul 4.7 10:14:21 10° NW 10:17:19 18° W 10:18:02 17° W visible
12 Jul 3.2 08:57:14 10° N 09:01:44 71° E 09:02:07 66° ESE visible
